Zurück zum Katalog

FENGYUN 1C DEB

AktivPO
NORAD 30146·DEBRIS·🇨🇳 China

Gestartet May 10, 1999 von Taiyuan Satellite Launch Center

Loading…

Nächste Überflüge (nächste 24 Stunden)

TLE

AktuellSource: Space-Track

Epoche: Sep 14, 2026, 14:25 UTC

1 30146U 99025TB  26257.60114793  .00000350  00000-0  28881-3 0  9990
2 30146  98.0543  23.7470 0178490  76.4326 347.3267 13.86984942992416

Verfolge FENGYUN 1C DEB in Echtzeit mit AllMySat

Download on the App Store